Location: Unspecified
(40.7945°N, 111.1337°W)
Time: 15:05:15
(UTC-06:00)

Transit 4A - All Passes

Search period start: 19 June 2019 00:00
Search period end: 29 June 2019 00:00
Orbit: 862 x 983 km, 66.8° (Epoch: 18 June)

Date Brightness Start Highest point End Pass type
(mag) Time Alt. Az. Time Alt. Az. Time Alt. Az.
19 Jun - 09:25:50 10° S 09:31:47 48° ESE 09:37:52 10° NE daylight
19 Jun - 11:12:44 10° WSW 11:18:21 33° NW 11:24:05 10° NNE daylight
19 Jun - 16:44:29 10° N 16:47:07 13° NNE 16:49:44 10° ENE daylight
19 Jun - 18:28:55 10° NNW 18:35:08 51° NE 18:41:10 10° SE daylight
19 Jun - 20:15:54 10° NW 20:21:10 28° WSW 20:26:18 10° SSW daylight
20 Jun - 09:34:49 10° SSW 09:41:01 71° ESE 09:47:24 10° NNE daylight
20 Jun - 11:22:58 10° W 11:28:01 24° NW 11:33:09 10° N daylight
20 Jun - 16:53:04 10° N 16:57:01 17° NE 17:00:54 10° ENE daylight
20 Jun - 18:38:11 10° NNW 18:44:34 73° ENE 18:50:46 10° SE daylight
20 Jun - 20:26:04 10° WNW 20:30:14 19° WSW 20:34:18 10° SW daylight
21 Jun - 08:01:08 10° SE 08:04:49 16° ESE 08:08:31 10° ENE daylight
21 Jun - 09:44:05 10° SSW 09:50:21 81° WNW 09:56:48 10° NNE daylight
21 Jun - 11:33:30 10° W 11:37:46 18° NW 11:42:05 10° N daylight
21 Jun - 17:01:57 10° N 17:06:48 22° NE 17:11:34 10° E daylight
21 Jun - 18:47:33 10° NNW 18:53:56 79° WSW 19:00:07 10° SSE daylight
21 Jun - 20:37:19 10° W 20:39:13 11° W 20:41:06 10° WSW daylight
22 Jun - 08:08:55 10° SSE 08:13:51 25° ESE 08:18:52 10° NE daylight
22 Jun - 09:53:36 10° SW 09:59:46 57° NW 10:06:06 10° NNE daylight
22 Jun - 11:44:28 10° WNW 11:47:38 14° NW 11:50:48 10° N daylight
22 Jun - 17:10:58 10° NNW 17:16:29 30° NE 17:21:53 10° ESE daylight
22 Jun - 18:57:02 10° NW 19:03:12 54° WSW 19:09:11 10° S daylight
23 Jun - 08:17:18 10° S 08:22:58 37° ESE 08:28:45 10° NE daylight
23 Jun - 10:03:23 10° WSW 10:09:17 41° NW 10:15:18 10° NNE daylight
23 Jun - 11:56:24 10° NW 11:57:35 10° NNW 11:58:46 10° NNW daylight
23 Jun - 15:36:38 10° NNE 15:37:48 10° NNE 15:38:59 10° NE daylight
23 Jun - 17:20:06 10° NNW 17:26:06 41° NE 17:31:55 10° ESE daylight
23 Jun - 19:06:41 10° NW 19:12:23 36° WSW 19:17:56 10° S daylight
24 Jun - 08:26:05 10° S 08:32:09 55° ESE 08:38:23 10° NE daylight
24 Jun - 10:13:26 10° WSW 10:18:53 30° NW 10:24:25 10° NNE daylight
24 Jun - 15:44:36 10° N 15:47:45 14° NE 15:50:53 10° ENE daylight
24 Jun - 17:29:18 10° NNW 17:35:36 58° NE 17:41:42 10° SE daylight
24 Jun - 19:16:35 10° NW 19:21:29 24° WSW 19:26:17 10° SSW daylight
25 Jun - 06:53:55 10° ESE 06:56:07 12° E 06:58:21 10° E daylight
25 Jun - 08:35:10 10° SSW 08:41:26 81° ESE 08:47:52 10° NNE daylight
25 Jun - 10:23:46 10° W 10:28:35 22° NW 10:33:27 10° N daylight
25 Jun - 15:53:19 10° N 15:57:37 18° NE 16:01:50 10° E daylight
25 Jun - 17:38:37 10° NNW 17:45:01 82° ENE 17:51:12 10° SSE daylight
25 Jun - 19:26:59 10° WNW 19:30:31 16° WSW 19:34:01 10° SW daylight
26 Jun - 07:00:52 10° SSE 07:05:07 19° ESE 07:09:25 10° ENE daylight
26 Jun - 08:44:31 10° SW 08:50:48 72° WNW 08:57:14 10° NNE daylight
26 Jun - 10:34:27 10° WNW 10:38:22 17° NW 10:42:19 10° N daylight
26 Jun - 16:02:16 10° N 16:07:22 24° NE 16:12:22 10° E daylight
26 Jun - 17:48:02 10° NW 17:54:21 69° WSW 18:00:27 10° SSE daylight
27 Jun - 07:08:55 10° SSE 07:14:10 29° ESE 07:19:33 10° NE daylight
27 Jun - 08:54:09 10° SW 09:00:15 50° NW 09:06:30 10° NNE daylight
27 Jun - 10:45:38 10° WNW 10:48:15 13° NNW 10:50:54 10° N daylight
27 Jun - 16:11:19 10° NNW 16:17:01 33° NE 16:22:35 10° ESE daylight
27 Jun - 17:57:34 10° NW 18:03:35 47° WSW 18:09:25 10° S daylight
28 Jun - 07:17:28 10° S 07:23:19 43° ESE 07:29:19 10° NE daylight
28 Jun - 09:04:01 10° WSW 09:09:47 36° NW 09:15:40 10° NNE daylight
28 Jun - 14:36:22 10° N 14:38:28 12° NNE 14:40:33 10° NE daylight
28 Jun - 16:20:29 10° NNW 16:26:36 46° NE 16:32:31 10° SE daylight
28 Jun - 18:07:18 10° NW 18:12:44 31° WSW 18:18:02 10° SSW daylight
